User: anonymous   Login
Location: Bretagne
(43.8474°N, 0.4650°W)
Time: 12:13:34
(UTC+00:00)
Language:

Cosmos 1484 Rocket - Orbit

View from above orbital plane
View from above orbital plane
View from above satellite
View from above satellite

Ground track
Ground track

The orbit is defined by the following mean orbital elements,

1 14208U          26066.15032831 +.00000000 +00000-0 +35361-3 0 00002
2 14208  97.6142  70.6312 0019916 235.6705 124.2655 15.38339493    02
Epoch (UTC): 07 March 2026 03:36:28
Eccentricity: 0.0019916
inclination: 97.6142°
perigee height: 437 km
apogee height: 465 km
right ascension of ascending node: 70.6312°
argument of perigee: 235.6705°
revolutions per day: 15.38339493
mean anomaly at epoch: 124.2655°

The dashed part of the orbit path shows where the satellite is in the earth's shadow,  

DLR